Time,TemperatureF,DewpointF,PressureIn,WindDirection,WindDirectionDegrees,WindSpeedMPH,WindSpeedGustMPH,Humidity,HourlyPrecipIn,Conditions,Clouds,dailyrainin,SoftwareType,DateUTC
2013-09-03 00:00:00,57.7,50.2,29.99,NNE,12,4.0,5.0,76,0.00,,,0.00,Wunderground v.1.15,2013-09-03 04:00:00,
2013-09-03 00:05:00,57.8,50.3,29.99,NNE,26,5.0,5.0,76,0.00,,,0.00,Wunderground v.1.15,2013-09-03 04:05:00,
2013-09-03 00:10:00,57.8,50.3,29.99,NNE,33,6.0,7.0,76,0.00,,,0.00,Wunderground v.1.15,2013-09-03 04:10:00,
2013-09-03 00:15:00,57.9,50.0,29.99,North,351,5.0,7.0,75,0.00,,,0.00,Wunderground v.1.15,2013-09-03 04:15:00,
2013-09-03 00:20:00,58.0,50.1,29.99,NNE,32,6.0,9.0,75,0.00,,,0.00,Wunderground v.1.15,2013-09-03 04:20:00,
2013-09-03 00:25:00,58.1,50.2,29.99,NNE,20,6.0,9.0,75,0.00,,,0.00,Wunderground v.1.15,2013-09-03 04:25:00,
2013-09-03 00:35:00,58.3,50.4,29.99,NNW,346,4.0,5.0,75,0.00,,,0.00,Wunderground v.1.15,2013-09-03 04:35:00,
2013-09-03 00:40:00,58.5,50.2,29.99,NNE,23,6.0,6.0,74,0.00,,,0.00,Wunderground v.1.15,2013-09-03 04:40:00,
2013-09-03 00:45:00,58.6,50.3,29.99,NNE,20,6.0,6.0,74,0.00,,,0.00,Wunderground v.1.15,2013-09-03 04:45:00,
2013-09-03 00:50:00,58.6,50.7,29.99,NNE,20,5.0,5.0,75,0.00,,,0.00,Wunderground v.1.15,2013-09-03 04:50:00,
2013-09-03 00:55:00,58.6,50.7,29.99,NE,55,4.0,5.0,75,0.00,,,0.00,Wunderground v.1.15,2013-09-03 04:55:00,
2013-09-03 01:00:00,58.5,50.6,29.99,North,9,3.0,4.0,75,0.00,,,0.00,Wunderground v.1.15,2013-09-03 05:00:00,
2013-09-03 01:10:00,58.4,50.5,29.99,NNE,18,2.0,2.0,75,0.00,,,0.00,Wunderground v.1.15,2013-09-03 05:10:00,
2013-09-03 01:15:00,58.4,50.9,29.99,NE,38,2.0,3.0,76,0.00,,,0.00,Wunderground v.1.15,2013-09-03 05:15:00,
2013-09-03 01:20:00,58.4,50.9,29.99,NNW,347,1.0,1.0,76,0.00,,,0.00,Wunderground v.1.15,2013-09-03 05:20:00,
2013-09-03 01:25:00,58.3,50.8,29.99,NE,43,1.0,1.0,76,0.00,,,0.00,Wunderground v.1.15,2013-09-03 05:25:00,
2013-09-03 01:30:00,58.3,51.1,29.99,NNE,27,1.0,2.0,77,0.00,,,0.00,Wunderground v.1.15,2013-09-03 05:30:00,
2013-09-03 01:40:00,58.1,50.9,29.99,NE,48,1.0,1.0,77,0.00,,,0.00,Wunderground v.1.15,2013-09-03 05:40:00,
2013-09-03 01:45:00,58.1,51.3,29.99,NE,45,1.0,1.0,78,0.00,,,0.00,Wunderground v.1.15,2013-09-03 05:45:00,
2013-09-03 01:50:00,58.1,51.3,29.99,NNE,29,0.0,0.0,78,0.00,,,0.00,Wunderground v.1.15,2013-09-03 05:50:00,
2013-09-03 01:55:00,58.0,51.2,29.99,NNE,23,1.0,1.0,78,0.00,,,0.00,Wunderground v.1.15,2013-09-03 05:55:00,
2013-09-03 02:00:00,58.0,51.2,29.99,North,352,1.0,1.0,78,0.00,,,0.00,Wunderground v.1.15,2013-09-03 06:00:00,
2013-09-03 02:10:00,58.1,51.3,29.98,East,80,1.0,1.0,78,0.00,,,0.00,Wunderground v.1.15,2013-09-03 06:10:00,
2013-09-03 02:15:00,58.0,51.2,29.98,ENE,60,1.0,1.0,78,0.00,,,0.00,Wunderground v.1.15,2013-09-03 06:15:00,
2013-09-03 02:20:00,58.2,51.4,29.98,NE,41,2.0,2.0,78,0.00,,,0.00,Wunderground v.1.15,2013-09-03 06:20:00,
2013-09-03 02:25:00,58.3,51.5,29.98,NE,35,2.0,2.0,78,0.00,,,0.00,Wunderground v.1.15,2013-09-03 06:25:00,
2013-09-03 02:30:00,58.3,51.5,29.98,NE,56,2.0,2.0,78,0.00,,,0.00,Wunderground v.1.15,2013-09-03 06:30:00,
2013-09-03 02:35:00,58.3,51.5,29.98,NW,322,1.0,2.0,78,0.00,,,0.00,Wunderground v.1.15,2013-09-03 06:35:00,
2013-09-03 02:40:00,58.4,51.6,29.98,North,360,2.0,2.0,78,0.00,,,0.00,Wunderground v.1.15,2013-09-03 06:40:00,
2013-09-03 02:45:00,58.3,51.5,29.97,North,352,1.0,2.0,78,0.00,,,0.00,Wunderground v.1.15,2013-09-03 06:45:00,
2013-09-03 02:55:00,58.2,51.7,29.98,North,9,2.0,2.0,79,0.00,,,0.00,Wunderground v.1.15,2013-09-03 06:55:00,
2013-09-03 03:00:00,58.2,51.7,29.98,North,360,2.0,3.0,79,0.00,,,0.00,Wunderground v.1.15,2013-09-03 07:00:00,
2013-09-03 03:10:00,58.1,51.6,29.98,North,4,1.0,2.0,79,0.00,,,0.00,Wunderground v.1.15,2013-09-03 07:10:00,
2013-09-03 03:15:00,58.1,52.0,29.98,NNW,344,1.0,2.0,80,0.00,,,0.00,Wunderground v.1.15,2013-09-03 07:15:00,
2013-09-03 03:20:00,58.0,51.9,29.98,NNW,338,1.0,1.0,80,0.00,,,0.00,Wunderground v.1.15,2013-09-03 07:20:00,
2013-09-03 03:25:00,57.9,51.8,29.98,North,11,1.0,1.0,80,0.00,,,0.00,Wunderground v.1.15,2013-09-03 07:25:00,
2013-09-03 03:30:00,57.9,51.8,29.98,North,11,0.0,0.0,80,0.00,,,0.00,Wunderground v.1.15,2013-09-03 07:30:00,
2013-09-03 03:35:00,57.8,51.7,29.98,North,6,0.0,0.0,80,0.00,,,0.00,Wunderground v.1.15,2013-09-03 07:35:00,
2013-09-03 03:40:00,57.6,51.8,29.98,North,6,0.0,0.0,81,0.00,,,0.00,Wunderground v.1.15,2013-09-03 07:40:00,
2013-09-03 03:50:00,57.6,51.8,29.98,NNE,15,1.0,1.0,81,0.00,,,0.00,Wunderground v.1.15,2013-09-03 07:50:00,
2013-09-03 03:55:00,57.6,51.8,29.98,NNE,15,1.0,1.0,81,0.00,,,0.00,Wunderground v.1.15,2013-09-03 07:55:00,
2013-09-03 04:00:00,57.5,52.0,29.98,NNE,14,0.0,0.0,82,0.00,,,0.00,Wunderground v.1.15,2013-09-03 08:00:00,
2013-09-03 04:10:00,57.2,51.4,29.99,ENE,61,0.0,1.0,81,0.00,,,0.00,Wunderground v.1.15,2013-09-03 08:10:00,
2013-09-03 04:20:00,57.6,51.1,29.99,NNW,335,2.0,2.0,79,0.00,,,0.00,Wunderground v.1.15,2013-09-03 08:20:00,
2013-09-03 04:25:00,57.7,50.9,29.99,North,11,3.0,3.0,78,0.00,,,0.00,Wunderground v.1.15,2013-09-03 08:25:00,
2013-09-03 04:30:00,57.6,50.8,29.99,NNE,16,3.0,3.0,78,0.00,,,0.00,Wunderground v.1.15,2013-09-03 08:30:00,
2013-09-03 04:35:00,57.5,50.7,30.00,North,358,3.0,3.0,78,0.00,,,0.00,Wunderground v.1.15,2013-09-03 08:35:00,
2013-09-03 04:40:00,57.2,50.7,30.00,NNW,348,2.0,2.0,79,0.00,,,0.00,Wunderground v.1.15,2013-09-03 08:40:00,
2013-09-03 04:45:00,57.0,50.5,30.00,North,10,1.0,2.0,79,0.00,,,0.00,Wunderground v.1.15,2013-09-03 08:45:00,
2013-09-03 04:55:00,56.9,50.5,30.00,NNW,330,0.0,1.0,79,0.00,,,0.00,Wunderground v.1.15,2013-09-03 08:55:00,
2013-09-03 05:00:00,56.9,50.8,30.00,NNW,330,0.0,0.0,80,0.00,,,0.00,Wunderground v.1.15,2013-09-03 09:00:00,
2013-09-03 05:10:00,56.9,50.5,30.00,NNW,328,0.0,0.0,79,0.00,,,0.00,Wunderground v.1.15,2013-09-03 09:10:00,
2013-09-03 05:15:00,57.0,50.5,30.00,North,355,0.0,0.0,79,0.00,,,0.00,Wunderground v.1.15,2013-09-03 09:15:00,
2013-09-03 05:25:00,57.3,50.8,30.01,North,358,0.0,1.0,79,0.00,,,0.00,Wunderground v.1.15,2013-09-03 09:25:00,
2013-09-03 05:30:00,57.5,51.0,30.01,NW,321,0.0,0.0,79,0.00,,,0.00,Wunderground v.1.15,2013-09-03 09:30:00,
2013-09-03 05:35:00,57.5,51.0,30.01,NW,322,0.0,0.0,79,0.00,,,0.00,Wunderground v.1.15,2013-09-03 09:35:00,
2013-09-03 05:40:00,57.5,51.0,30.01,North,353,0.0,0.0,79,0.00,,,0.00,Wunderground v.1.15,2013-09-03 09:40:00,
2013-09-03 05:45:00,57.7,50.9,30.01,North,354,1.0,1.0,78,0.00,,,0.00,Wunderground v.1.15,2013-09-03 09:45:00,
2013-09-03 05:50:00,57.7,50.9,30.01,North,356,1.0,1.0,78,0.00,,,0.00,Wunderground v.1.15,2013-09-03 09:50:00,
2013-09-03 06:00:00,57.3,50.8,30.02,North,3,1.0,1.0,79,0.00,,,0.00,Wunderground v.1.15,2013-09-03 10:00:00,
2013-09-03 06:10:00,56.4,50.6,30.02,North,359,1.0,1.0,81,0.00,,,0.00,Wunderground v.1.15,2013-09-03 10:10:00,
2013-09-03 06:15:00,56.2,50.4,30.02,North,354,1.0,1.0,81,0.00,,,0.00,Wunderground v.1.15,2013-09-03 10:15:00,
2013-09-03 06:20:00,55.9,50.5,30.02,NNE,16,1.0,1.0,82,0.00,,,0.00,Wunderground v.1.15,2013-09-03 10:20:00,
2013-09-03 06:25:00,55.6,50.5,30.03,NNE,16,1.0,3.0,83,0.00,,,0.00,Wunderground v.1.15,2013-09-03 10:25:00,
2013-09-03 06:30:00,55.5,50.4,30.03,North,1,1.0,1.0,83,0.00,,,0.00,Wunderground v.1.15,2013-09-03 10:30:00,
2013-09-03 06:35:00,55.4,50.3,30.03,NNW,347,1.0,1.0,83,0.00,,,0.00,Wunderground v.1.15,2013-09-03 10:35:00,
2013-09-03 06:40:00,55.3,50.2,30.03,North,6,1.0,1.0,83,0.00,,,0.00,Wunderground v.1.15,2013-09-03 10:40:00,
2013-09-03 06:45:00,55.1,50.4,30.04,North,6,1.0,2.0,84,0.00,,,0.00,Wunderground v.1.15,2013-09-03 10:45:00,
2013-09-03 06:50:00,55.1,50.4,30.04,North,4,1.0,2.0,84,0.00,,,0.00,Wunderground v.1.15,2013-09-03 10:50:00,
2013-09-03 07:00:00,55.1,50.4,30.04,NNW,328,1.0,1.0,84,0.00,,,0.00,Wunderground v.1.15,2013-09-03 11:00:00,
2013-09-03 07:10:00,54.9,50.5,30.04,NNW,327,0.0,0.0,85,0.00,,,0.00,Wunderground v.1.15,2013-09-03 11:10:00,
2013-09-03 07:15:00,54.8,50.7,30.04,WNW,298,0.0,0.0,86,0.00,,,0.00,Wunderground v.1.15,2013-09-03 11:15:00,
2013-09-03 07:20:00,54.8,51.0,30.04,WNW,300,0.0,0.0,87,0.00,,,0.00,Wunderground v.1.15,2013-09-03 11:20:00,
2013-09-03 07:25:00,54.8,51.0,30.05,WNW,300,0.0,0.0,87,0.00,,,0.00,Wunderground v.1.15,2013-09-03 11:25:00,
2013-09-03 07:35:00,54.8,51.3,30.05,WNW,300,0.0,0.0,88,0.00,,,0.00,Wunderground v.1.15,2013-09-03 11:35:00,
2013-09-03 07:40:00,54.9,51.4,30.05,WNW,300,0.0,0.0,88,0.00,,,0.00,Wunderground v.1.15,2013-09-03 11:40:00,
2013-09-03 07:45:00,55.1,51.6,30.06,WNW,300,0.0,0.0,88,0.00,,,0.00,Wunderground v.1.15,2013-09-03 11:45:00,
2013-09-03 07:50:00,55.4,51.9,30.06,WNW,298,0.0,0.0,88,0.00,,,0.00,Wunderground v.1.15,2013-09-03 11:50:00,
2013-09-03 07:55:00,55.7,51.9,30.06,WNW,298,0.0,1.0,87,0.00,,,0.00,Wunderground v.1.15,2013-09-03 11:55:00,
2013-09-03 08:00:00,55.8,52.0,30.06,WNW,298,0.0,0.0,87,0.00,,,0.00,Wunderground v.1.15,2013-09-03 12:00:00,
2013-09-03 08:10:00,56.5,52.0,30.06,WNW,301,0.0,1.0,85,0.00,,,0.00,Wunderground v.1.15,2013-09-03 12:10:00,
2013-09-03 08:15:00,57.0,52.5,30.06,WNW,290,1.0,1.0,85,0.00,,,0.00,Wunderground v.1.15,2013-09-03 12:15:00,
2013-09-03 08:20:00,57.5,52.7,30.06,NW,310,0.0,1.0,84,0.00,,,0.00,Wunderground v.1.15,2013-09-03 12:20:00,
2013-09-03 08:25:00,58.1,52.6,30.06,NW,318,0.0,1.0,82,0.00,,,0.00,Wunderground v.1.15,2013-09-03 12:25:00,
2013-09-03 08:30:00,58.6,52.4,30.06,NW,325,0.0,2.0,80,0.00,,,0.00,Wunderground v.1.15,2013-09-03 12:30:00,
2013-09-03 08:40:00,59.0,52.8,30.06,North,356,2.0,2.0,80,0.00,,,0.00,Wunderground v.1.15,2013-09-03 12:40:00,
2013-09-03 08:45:00,59.5,53.0,30.06,NW,318,1.0,2.0,79,0.00,,,0.00,Wunderground v.1.15,2013-09-03 12:45:00,
2013-09-03 08:50:00,59.8,52.6,30.07,NNE,21,1.0,1.0,77,0.00,,,0.00,Wunderground v.1.15,2013-09-03 12:50:00,
2013-09-03 08:55:00,60.0,52.4,30.06,NNE,18,2.0,6.0,76,0.00,,,0.00,Wunderground v.1.15,2013-09-03 12:55:00,
2013-09-03 09:00:00,60.2,52.2,30.06,NNW,336,3.0,4.0,75,0.00,,,0.00,Wunderground v.1.15,2013-09-03 13:00:00,
2013-09-03 09:10:00,60.8,52.1,30.06,NNE,23,4.0,9.0,73,0.00,,,0.00,Wunderground v.1.15,2013-09-03 13:10:00,
2013-09-03 09:15:00,61.0,53.0,30.06,NW,315,3.0,9.0,75,0.00,,,0.00,Wunderground v.1.15,2013-09-03 13:15:00,
2013-09-03 09:20:00,61.3,52.6,30.07,NNW,343,3.0,3.0,73,0.00,,,0.00,Wunderground v.1.15,2013-09-03 13:20:00,
2013-09-03 09:25:00,61.3,52.6,30.07,North,7,4.0,4.0,73,0.00,,,0.00,Wunderground v.1.15,2013-09-03 13:25:00,
2013-09-03 09:30:00,61.6,53.2,30.07,NW,318,4.0,4.0,74,0.00,,,0.00,Wunderground v.1.15,2013-09-03 13:30:00,
2013-09-03 09:35:00,61.9,52.8,30.07,NNE,18,4.0,11.0,72,0.00,,,0.00,Wunderground v.1.15,2013-09-03 13:35:00,
2013-09-03 09:45:00,62.0,52.9,30.07,NNW,340,7.0,7.0,72,0.00,,,0.00,Wunderground v.1.15,2013-09-03 13:45:00,
2013-09-03 09:50:00,62.2,53.1,30.07,NNE,21,6.0,11.0,72,0.00,,,0.00,Wunderground v.1.15,2013-09-03 13:50:00,
2013-09-03 09:55:00,62.5,53.3,30.08,NNE,18,6.0,11.0,72,0.00,,,0.00,Wunderground v.1.15,2013-09-03 13:55:00,
2013-09-03 10:00:00,62.6,53.1,30.07,NE,55,7.0,7.0,71,0.00,,,0.00,Wunderground v.1.15,2013-09-03 14:00:00,
2013-09-03 10:10:00,63.1,53.2,30.08,ENE,58,4.0,9.0,70,0.00,,,0.00,Wunderground v.1.15,2013-09-03 14:10:00,
2013-09-03 10:15:00,63.1,53.5,30.07,NE,51,6.0,9.0,71,0.00,,,0.00,Wunderground v.1.15,2013-09-03 14:15:00,
2013-09-03 10:20:00,62.9,53.0,30.07,North,3,7.0,10.0,70,0.00,,,0.00,Wunderground v.1.15,2013-09-03 14:20:00,
2013-09-03 10:25:00,62.9,53.4,30.08,NNE,33,7.0,10.0,71,0.00,,,0.00,Wunderground v.1.15,2013-09-03 14:25:00,
2013-09-03 10:30:00,63.1,53.2,30.08,NE,39,7.0,7.0,70,0.00,,,0.00,Wunderground v.1.15,2013-09-03 14:30:00,
2013-09-03 10:35:00,63.2,53.3,30.08,NE,42,6.0,7.0,70,0.00,,,0.00,Wunderground v.1.15,2013-09-03 14:35:00,
2013-09-03 10:45:00,64.1,53.7,30.07,NNW,337,7.0,7.0,69,0.00,,,0.00,Wunderground v.1.15,2013-09-03 14:45:00,
2013-09-03 10:50:00,64.3,53.5,30.07,ENE,67,6.0,6.0,68,0.00,,,0.00,Wunderground v.1.15,2013-09-03 14:50:00,
2013-09-03 10:55:00,64.3,53.9,30.07,NNW,339,6.0,6.0,69,0.00,,,0.00,Wunderground v.1.15,2013-09-03 14:55:00,
2013-09-03 11:00:00,64.9,54.5,30.07,North,6,6.0,6.0,69,0.00,,,0.00,Wunderground v.1.15,2013-09-03 15:00:00,
2013-09-03 11:10:00,65.3,53.6,30.07,NNE,32,6.0,10.0,66,0.00,,,0.00,Wunderground v.1.15,2013-09-03 15:10:00,
2013-09-03 11:20:00,65.8,54.1,30.07,North,4,7.0,7.0,66,0.00,,,0.00,Wunderground v.1.15,2013-09-03 15:20:00,
2013-09-03 11:25:00,66.0,54.3,30.07,NNE,15,6.0,7.0,66,0.00,,,0.00,Wunderground v.1.15,2013-09-03 15:25:00,
2013-09-03 11:30:00,65.9,54.2,30.07,ENE,58,6.0,6.0,66,0.00,,,0.00,Wunderground v.1.15,2013-09-03 15:30:00,
2013-09-03 11:35:00,66.9,55.2,30.07,NE,42,5.0,6.0,66,0.00,,,0.00,Wunderground v.1.15,2013-09-03 15:35:00,
2013-09-03 11:40:00,67.5,54.5,30.08,NW,314,5.0,5.0,63,0.00,,,0.00,Wunderground v.1.15,2013-09-03 15:40:00,
2013-09-03 11:50:00,67.3,54.3,30.07,North,356,6.0,6.0,63,0.00,,,0.00,Wunderground v.1.15,2013-09-03 15:50:00,
2013-09-03 11:55:00,67.9,55.3,30.08,WNW,285,5.0,6.0,64,0.00,,,0.00,Wunderground v.1.15,2013-09-03 15:55:00,
2013-09-03 12:00:00,67.7,55.1,30.08,NNW,328,5.0,5.0,64,0.00,,,0.00,Wunderground v.1.15,2013-09-03 16:00:00,
2013-09-03 12:10:00,68.0,54.9,30.08,North,6,5.0,8.0,63,0.00,,,0.00,Wunderground v.1.15,2013-09-03 16:10:00,
2013-09-03 12:15:00,68.1,55.0,30.08,NE,39,7.0,9.0,63,0.00,,,0.00,Wunderground v.1.15,2013-09-03 16:15:00,
2013-09-03 12:25:00,69.0,55.9,30.08,NW,322,5.0,8.0,63,0.00,,,0.00,Wunderground v.1.15,2013-09-03 16:25:00,
2013-09-03 12:30:00,68.5,55.4,30.08,North,360,5.0,7.0,63,0.00,,,0.00,Wunderground v.1.15,2013-09-03 16:30:00,
2013-09-03 12:35:00,68.8,55.7,30.08,WNW,284,5.0,7.0,63,0.00,,,0.00,Wunderground v.1.15,2013-09-03 16:35:00,
2013-09-03 12:40:00,68.6,55.5,30.08,NNW,347,5.0,5.0,63,0.00,,,0.00,Wunderground v.1.15,2013-09-03 16:40:00,
2013-09-03 12:45:00,69.1,56.0,30.08,West,278,5.0,5.0,63,0.00,,,0.00,Wunderground v.1.15,2013-09-03 16:45:00,
2013-09-03 12:55:00,69.1,55.1,30.08,WNW,296,5.0,8.0,61,0.00,,,0.00,Wunderground v.1.15,2013-09-03 16:55:00,
2013-09-03 13:00:00,69.7,56.5,30.07,WNW,293,4.0,4.0,63,0.00,,,0.00,Wunderground v.1.15,2013-09-03 17:00:00,
2013-09-03 13:10:00,70.2,55.7,30.07,WNW,297,5.0,5.0,60,0.00,,,0.00,Wunderground v.1.15,2013-09-03 17:10:00,
2013-09-03 13:15:00,70.3,56.2,30.07,NNE,27,4.0,5.0,61,0.00,,,0.00,Wunderground v.1.15,2013-09-03 17:15:00,
2013-09-03 13:20:00,70.3,56.2,30.07,WNW,299,4.0,4.0,61,0.00,,,0.00,Wunderground v.1.15,2013-09-03 17:20:00,
2013-09-03 13:30:00,70.6,56.9,30.07,NW,307,4.0,6.0,62,0.00,,,0.00,Wunderground v.1.15,2013-09-03 17:30:00,
2013-09-03 13:35:00,71.2,56.6,30.07,WNW,302,3.0,6.0,60,0.00,,,0.00,Wunderground v.1.15,2013-09-03 17:35:00,
2013-09-03 13:40:00,70.7,56.1,30.07,West,280,4.0,6.0,60,0.00,,,0.00,Wunderground v.1.15,2013-09-03 17:40:00,
2013-09-03 13:45:00,71.1,56.5,30.06,North,10,4.0,8.0,60,0.00,,,0.00,Wunderground v.1.15,2013-09-03 17:45:00,
2013-09-03 13:50:00,71.0,55.9,30.07,NW,307,6.0,8.0,59,0.00,,,0.00,Wunderground v.1.15,2013-09-03 17:50:00,
2013-09-03 13:55:00,70.6,56.0,30.07,NW,314,6.0,8.0,60,0.00,,,0.00,Wunderground v.1.15,2013-09-03 17:55:00,
2013-09-03 14:00:00,71.2,56.6,30.07,NNW,348,6.0,6.0,60,0.00,,,0.00,Wunderground v.1.15,2013-09-03 18:00:00,
2013-09-03 14:10:00,71.8,56.7,30.07,WNW,285,6.0,6.0,59,0.00,,,0.00,Wunderground v.1.15,2013-09-03 18:10:00,
2013-09-03 14:15:00,72.1,57.4,30.06,NNW,328,5.0,7.0,60,0.00,,,0.00,Wunderground v.1.15,2013-09-03 18:15:00,
2013-09-03 14:20:00,72.1,56.5,30.06,West,278,5.0,6.0,58,0.00,,,0.00,Wunderground v.1.15,2013-09-03 18:20:00,
2013-09-03 14:30:00,72.2,55.6,30.06,WNW,284,6.0,7.0,56,0.00,,,0.00,Wunderground v.1.15,2013-09-03 18:30:00,
2013-09-03 14:35:00,72.1,56.5,30.06,North,4,6.0,7.0,58,0.00,,,0.00,Wunderground v.1.15,2013-09-03 18:35:00,
2013-09-03 14:40:00,72.4,57.3,30.06,North,1,5.0,5.0,59,0.00,,,0.00,Wunderground v.1.15,2013-09-03 18:40:00,
2013-09-03 14:45:00,72.9,57.3,30.06,NNW,330,5.0,5.0,58,0.00,,,0.00,Wunderground v.1.15,2013-09-03 18:45:00,
2013-09-03 14:50:00,72.7,57.1,30.05,North,352,5.0,5.0,58,0.00,,,0.00,Wunderground v.1.15,2013-09-03 18:50:00,
2013-09-03 14:55:00,71.9,56.8,30.05,NW,312,5.0,7.0,59,0.00,,,0.00,Wunderground v.1.15,2013-09-03 18:55:00,
2013-09-03 15:00:00,71.9,56.8,30.06,West,276,5.0,5.0,59,0.00,,,0.00,Wunderground v.1.15,2013-09-03 19:00:00,
2013-09-03 15:10:00,72.7,57.1,30.05,NNW,338,5.0,5.0,58,0.00,,,0.00,Wunderground v.1.15,2013-09-03 19:10:00,
2013-09-03 15:15:00,72.7,56.6,30.05,WNW,292,5.0,5.0,57,0.00,,,0.00,Wunderground v.1.15,2013-09-03 19:15:00,
2013-09-03 15:20:00,71.4,55.9,30.05,NNW,333,4.0,4.0,58,0.00,,,0.00,Wunderground v.1.15,2013-09-03 19:20:00,
2013-09-03 15:25:00,71.8,56.7,30.05,NNE,15,5.0,5.0,59,0.00,,,0.00,Wunderground v.1.15,2013-09-03 19:25:00,
2013-09-03 15:35:00,72.6,56.0,30.04,NNE,25,5.0,5.0,56,0.00,,,0.00,Wunderground v.1.15,2013-09-03 19:35:00,
2013-09-03 15:40:00,73.2,57.5,30.04,West,281,5.0,6.0,58,0.00,,,0.00,Wunderground v.1.15,2013-09-03 19:40:00,
2013-09-03 15:45:00,73.3,57.1,30.04,NNW,347,4.0,6.0,57,0.00,,,0.00,Wunderground v.1.15,2013-09-03 19:45:00,
2013-09-03 15:50:00,72.9,56.8,30.04,WNW,286,5.0,5.0,57,0.00,,,0.00,Wunderground v.1.15,2013-09-03 19:50:00,
2013-09-03 15:55:00,73.1,56.5,30.04,NNE,27,5.0,5.0,56,0.00,,,0.00,Wunderground v.1.15,2013-09-03 19:55:00,
2013-09-03 16:00:00,73.7,57.5,30.04,North,6,5.0,5.0,57,0.00,,,0.00,Wunderground v.1.15,2013-09-03 20:00:00,
2013-09-03 16:10:00,73.7,56.5,30.03,NW,318,5.0,5.0,55,0.00,,,0.00,Wunderground v.1.15,2013-09-03 20:10:00,
2013-09-03 16:15:00,73.6,56.9,30.03,NNW,328,5.0,5.0,56,0.00,,,0.00,Wunderground v.1.15,2013-09-03 20:15:00,
2013-09-03 16:20:00,73.5,57.8,30.04,NNW,345,5.0,5.0,58,0.00,,,0.00,Wunderground v.1.15,2013-09-03 20:20:00,
2013-09-03 16:25:00,73.2,57.1,30.03,NNE,13,5.0,6.0,57,0.00,,,0.00,Wunderground v.1.15,2013-09-03 20:25:00,
2013-09-03 16:30:00,73.4,57.2,30.03,NNW,345,5.0,7.0,57,0.00,,,0.00,Wunderground v.1.15,2013-09-03 20:30:00,
2013-09-03 16:40:00,73.1,57.9,30.03,West,281,5.0,9.0,59,0.00,,,0.00,Wunderground v.1.15,2013-09-03 20:40:00,
2013-09-03 16:45:00,72.9,56.3,30.03,WNW,290,5.0,9.0,56,0.00,,,0.00,Wunderground v.1.15,2013-09-03 20:45:00,
2013-09-03 16:50:00,73.0,56.9,30.03,West,273,7.0,7.0,57,0.00,,,0.00,Wunderground v.1.15,2013-09-03 20:50:00,
2013-09-03 16:55:00,73.4,57.7,30.03,NW,321,5.0,7.0,58,0.00,,,0.00,Wunderground v.1.15,2013-09-03 20:55:00,
2013-09-03 17:00:00,73.6,56.9,30.03,North,357,5.0,7.0,56,0.00,,,0.00,Wunderground v.1.15,2013-09-03 21:00:00,
2013-09-03 17:10:00,72.9,56.8,30.03,NNE,13,5.0,7.0,57,0.00,,,0.00,Wunderground v.1.15,2013-09-03 21:10:00,
2013-09-03 17:15:00,72.2,57.1,30.03,West,270,4.0,7.0,59,0.00,,,0.00,Wunderground v.1.15,2013-09-03 21:15:00,
2013-09-03 17:20:00,71.8,57.6,30.03,WNW,300,4.0,4.0,61,0.00,,,0.00,Wunderground v.1.15,2013-09-03 21:20:00,
2013-09-03 17:25:00,72.2,57.1,30.03,North,351,3.0,8.0,59,0.00,,,0.00,Wunderground v.1.15,2013-09-03 21:25:00,
2013-09-03 17:30:00,72.5,57.4,30.03,WNW,302,4.0,6.0,59,0.00,,,0.00,Wunderground v.1.15,2013-09-03 21:30:00,
2013-09-03 17:35:00,72.5,57.4,30.03,NW,308,5.0,6.0,59,0.00,,,0.00,Wunderground v.1.15,2013-09-03 21:35:00,
2013-09-03 17:45:00,73.1,57.0,30.03,NW,311,5.0,6.0,57,0.00,,,0.00,Wunderground v.1.15,2013-09-03 21:45:00,
2013-09-03 17:50:00,73.0,56.9,30.03,WNW,300,4.0,4.0,57,0.00,,,0.00,Wunderground v.1.15,2013-09-03 21:50:00,
2013-09-03 17:55:00,73.8,57.1,30.03,WNW,297,4.0,6.0,56,0.00,,,0.00,Wunderground v.1.15,2013-09-03 21:55:00,
2013-09-03 18:00:00,73.2,56.6,30.03,WNW,289,4.0,6.0,56,0.00,,,0.00,Wunderground v.1.15,2013-09-03 22:00:00,
2013-09-03 18:10:00,72.8,57.6,30.03,North,359,4.0,4.0,59,0.00,,,0.00,Wunderground v.1.15,2013-09-03 22:10:00,
2013-09-03 18:15:00,72.2,57.5,30.04,NW,309,3.0,4.0,60,0.00,,,0.00,Wunderground v.1.15,2013-09-03 22:15:00,
2013-09-03 18:20:00,71.1,57.4,30.04,NW,304,4.0,4.0,62,0.00,,,0.00,Wunderground v.1.15,2013-09-03 22:20:00,
2013-09-03 18:25:00,70.4,57.2,30.04,North,360,4.0,5.0,63,0.00,,,0.00,Wunderground v.1.15,2013-09-03 22:25:00,
2013-09-03 18:30:00,70.7,57.5,30.04,WNW,282,4.0,5.0,63,0.00,,,0.00,Wunderground v.1.15,2013-09-03 22:30:00,
2013-09-03 18:35:00,70.7,57.0,30.04,WNW,299,4.0,5.0,62,0.00,,,0.00,Wunderground v.1.15,2013-09-03 22:35:00,
2013-09-03 18:40:00,70.8,57.6,30.04,NW,311,4.0,4.0,63,0.00,,,0.00,Wunderground v.1.15,2013-09-03 22:40:00,
2013-09-03 18:50:00,70.8,57.6,30.04,WNW,294,4.0,4.0,63,0.00,,,0.00,Wunderground v.1.15,2013-09-03 22:50:00,
2013-09-03 18:55:00,70.8,57.6,30.04,NW,319,4.0,4.0,63,0.00,,,0.00,Wunderground v.1.15,2013-09-03 22:55:00,
2013-09-03 19:00:00,70.5,57.3,30.04,WNW,299,4.0,4.0,63,0.00,,,0.00,Wunderground v.1.15,2013-09-03 23:00:00,
2013-09-03 19:10:00,70.3,57.1,30.04,NNW,328,3.0,3.0,63,0.00,,,0.00,Wunderground v.1.15,2013-09-03 23:10:00,
2013-09-03 19:20:00,69.7,57.4,30.04,NW,324,4.0,4.0,65,0.00,,,0.00,Wunderground v.1.15,2013-09-03 23:20:00,
2013-09-03 19:25:00,69.3,57.5,30.04,WNW,291,4.0,4.0,66,0.00,,,0.00,Wunderground v.1.15,2013-09-03 23:25:00,
2013-09-03 19:30:00,69.0,57.2,30.04,NW,316,4.0,4.0,66,0.00,,,0.00,Wunderground v.1.15,2013-09-03 23:30:00,
2013-09-03 19:35:00,68.8,57.4,30.05,WNW,291,3.0,5.0,67,0.00,,,0.00,Wunderground v.1.15,2013-09-03 23:35:00,
2013-09-03 19:40:00,68.5,57.5,30.05,WNW,294,3.0,3.0,68,0.00,,,0.00,Wunderground v.1.15,2013-09-03 23:40:00,
2013-09-03 19:45:00,68.1,57.5,30.05,NNW,336,3.0,3.0,69,0.00,,,0.00,Wunderground v.1.15,2013-09-03 23:45:00,
2013-09-03 19:55:00,66.7,57.0,30.05,WNW,286,1.0,2.0,71,0.00,,,0.00,Wunderground v.1.15,2013-09-03 23:55:00,
2013-09-03 20:00:00,66.0,57.1,30.05,North,354,1.0,1.0,73,0.00,,,0.00,Wunderground v.1.15,2013-09-04 00:00:00,
2013-09-03 20:10:00,64.9,56.8,30.05,North,359,0.0,0.0,75,0.00,,,0.00,Wunderground v.1.15,2013-09-04 00:10:00,
2013-09-03 20:15:00,64.4,56.7,30.05,North,9,0.0,0.0,76,0.00,,,0.00,Wunderground v.1.15,2013-09-04 00:15:00,
2013-09-03 20:25:00,63.6,56.6,30.05,North,356,0.0,0.0,78,0.00,,,0.00,Wunderground v.1.15,2013-09-04 00:25:00,
2013-09-03 20:30:00,63.3,56.7,30.05,North,350,0.0,1.0,79,0.00,,,0.00,Wunderground v.1.15,2013-09-04 00:30:00,
2013-09-03 20:35:00,62.8,56.5,30.05,North,349,0.0,1.0,80,0.00,,,0.00,Wunderground v.1.15,2013-09-04 00:35:00,
2013-09-03 20:40:00,62.6,56.7,30.05,North,360,0.0,0.0,81,0.00,,,0.00,Wunderground v.1.15,2013-09-04 00:40:00,
2013-09-03 20:45:00,62.3,56.4,30.05,North,359,0.0,1.0,81,0.00,,,0.00,Wunderground v.1.15,2013-09-04 00:45:00,
2013-09-03 20:50:00,62.1,56.5,30.06,NNE,16,0.0,0.0,82,0.00,,,0.00,Wunderground v.1.15,2013-09-04 00:50:00,
2013-09-03 21:00:00,61.1,56.2,30.06,NNE,16,0.0,0.0,84,0.00,,,0.00,Wunderground v.1.15,2013-09-04 01:00:00,
2013-09-03 21:10:00,60.1,56.2,30.06,North,10,0.0,0.0,87,0.00,,,0.00,Wunderground v.1.15,2013-09-04 01:10:00,
2013-09-03 21:15:00,60.1,56.2,30.07,North,10,0.0,0.0,87,0.00,,,0.00,Wunderground v.1.15,2013-09-04 01:15:00,
2013-09-03 21:20:00,60.0,56.1,30.07,North,9,0.0,0.0,87,0.00,,,0.00,Wunderground v.1.15,2013-09-04 01:20:00,
2013-09-03 21:25:00,59.7,56.1,30.06,North,349,0.0,1.0,88,0.00,,,0.00,Wunderground v.1.15,2013-09-04 01:25:00,
2013-09-03 21:30:00,59.7,56.1,30.07,NW,321,1.0,1.0,88,0.00,,,0.00,Wunderground v.1.15,2013-09-04 01:30:00,
2013-09-03 21:35:00,59.6,56.0,30.07,NNW,335,1.0,1.0,88,0.00,,,0.00,Wunderground v.1.15,2013-09-04 01:35:00,
2013-09-03 21:40:00,59.6,56.0,30.07,North,6,1.0,1.0,88,0.00,,,0.00,Wunderground v.1.15,2013-09-04 01:40:00,
2013-09-03 21:45:00,59.5,55.9,30.07,North,9,1.0,1.0,88,0.00,,,0.00,Wunderground v.1.15,2013-09-04 01:45:00,
2013-09-03 21:50:00,59.6,56.0,30.07,NNE,12,1.0,2.0,88,0.00,,,0.00,Wunderground v.1.15,2013-09-04 01:50:00,
2013-09-03 22:00:00,59.3,55.4,30.06,NNW,347,0.0,0.0,87,0.00,,,0.00,Wunderground v.1.15,2013-09-04 02:00:00,
2013-09-03 22:10:00,57.7,54.8,30.07,NNW,347,0.0,0.0,90,0.00,,,0.00,Wunderground v.1.15,2013-09-04 02:10:00,
2013-09-03 22:15:00,57.4,54.8,30.07,NNW,347,0.0,0.0,91,0.00,,,0.00,Wunderground v.1.15,2013-09-04 02:15:00,
2013-09-03 22:20:00,56.9,54.3,30.07,NNW,347,0.0,0.0,91,0.00,,,0.00,Wunderground v.1.15,2013-09-04 02:20:00,
2013-09-03 22:25:00,56.6,54.3,30.07,NNW,347,0.0,0.0,92,0.00,,,0.00,Wunderground v.1.15,2013-09-04 02:25:00,
2013-09-03 22:35:00,56.5,54.5,30.07,NNW,347,0.0,0.0,93,0.00,,,0.00,Wunderground v.1.15,2013-09-04 02:35:00,
2013-09-03 22:40:00,56.5,54.8,30.07,NNW,347,0.0,0.0,94,0.00,,,0.00,Wunderground v.1.15,2013-09-04 02:40:00,
2013-09-03 22:45:00,56.1,54.4,30.07,NNW,347,0.0,0.0,94,0.00,,,0.00,Wunderground v.1.15,2013-09-04 02:45:00,
2013-09-03 22:50:00,55.7,53.7,30.07,NNW,347,0.0,0.0,93,0.00,,,0.00,Wunderground v.1.15,2013-09-04 02:50:00,
2013-09-03 22:55:00,55.2,53.2,30.06,NNW,347,0.0,0.0,93,0.00,,,0.00,Wunderground v.1.15,2013-09-04 02:55:00,
2013-09-03 23:00:00,54.6,52.6,30.07,NNW,347,0.0,0.0,93,0.00,,,0.00,Wunderground v.1.15,2013-09-04 03:00:00,
2013-09-03 23:10:00,54.3,52.9,30.07,NNW,347,0.0,0.0,95,0.00,,,0.00,Wunderground v.1.15,2013-09-04 03:10:00,
2013-09-03 23:15:00,54.3,52.9,30.07,NNW,347,0.0,0.0,95,0.00,,,0.00,Wunderground v.1.15,2013-09-04 03:15:00,
2013-09-03 23:20:00,54.1,52.7,30.06,NNW,347,0.0,0.0,95,0.00,,,0.00,Wunderground v.1.15,2013-09-04 03:20:00,
2013-09-03 23:25:00,53.9,52.5,30.07,NNW,347,0.0,0.0,95,0.00,,,0.00,Wunderground v.1.15,2013-09-04 03:25:00,
2013-09-03 23:30:00,53.6,52.2,30.07,NNW,347,0.0,0.0,95,0.00,,,0.00,Wunderground v.1.15,2013-09-04 03:30:00,
2013-09-03 23:40:00,53.7,52.6,30.07,NNW,347,0.0,0.0,96,0.00,,,0.00,Wunderground v.1.15,2013-09-04 03:40:00,
2013-09-03 23:45:00,54.0,53.2,30.07,NNW,347,0.0,0.0,97,0.00,,,0.00,Wunderground v.1.15,2013-09-04 03:45:00,
2013-09-03 23:50:00,54.3,53.5,30.07,NNW,347,0.0,0.0,97,0.00,,,0.00,Wunderground v.1.15,2013-09-04 03:50:00,
2013-09-03 23:55:00,54.3,53.5,30.07,NNW,347,0.0,0.0,97,0.00,,,0.00,Wunderground v.1.15,2013-09-04 03:55:00,